Regional Weather Roundup
Issued by NWS

Home | Current Version | Previous Version | Graphics & Text | Print | Product List | Glossary Off
Versions: 1 2 3 4 5 6 7 8 9 10 11 12 13 14 15 16 17 18 19 20 21 22 23 24 25 26 27 28 29 30 31 32 33 34 35 36 37 38 39 40 41 42 43 44 45 46 47 48 49 50

000
ASUS43 KDMX 220007
RWRIA

WEATHER ROUNDUP FOR IOWA
NATIONAL WEATHER SERVICE DES MOINES IA
700 PM CDT SUN SEP 21 2014

NOTE: "FAIR" INDICATES FEW OR NO CLOUDS BELOW 12,000 FEET WITH NO
SIGNIFICANT WEATHER AND/OR OBSTRUCTIONS TO VISIBILITY.

* - THESE STATIONS ARE NOT NWS STATIONS...THUS NOT UNDER NWS
QUALITY CONTROL.  THEY ALSO DO NOT REPORT WEATHER SUCH
AS PRECIPITATION OR FOG.

IAZ001>003-012>014-020>022-031>034-043>046-220100-
   NORTHWEST IOWA

CITY           SKY/WX    TMP DP  RH WIND       PRES   REMARKS
CARROLL *      CLEAR     63  48  59 N7        30.20R
CHEROKEE *     CLEAR     65  48  52 N6        30.22R
DENISON *      CLEAR     64  48  55 N5        30.20R
LE MARS *      CLEAR     66  48  52 NW6       30.23R
ORANGE CITY *  CLEAR     68  45  42 N3        30.23R
SHELDON *      CLEAR     63  48  59 N5        30.21S
SIOUX CITY     CLEAR     68  48  48 N7        30.22R
6HR MIN TEMP:  68; 6HR MAX TEMP:  73;

SPENCER        CLEAR     64  48  56 N8        30.22R
6HR MIN TEMP:  64; 6HR MAX TEMP:  69;

STORM LAKE *   CLEAR     64  52  63 N7G14     30.21S
$$

IAZ055>058-069>071-079>083-090>094-220100-
   SOUTHWEST IOWA

CITY           SKY/WX    TMP DP  RH WIND       PRES   REMARKS
ATLANTIC *     PTCLDY    64  50  59 N7        30.20R
AUDUBON *      CLEAR     63  46  55 NW3       30.22R
CLARINDA *     CLEAR     66  48  52 N7        30.21R
COUNCIL BLFS * CLEAR     66  50  55 N6        30.20S
CRESTON *      CLEAR     64  50  59 N8        30.19S
HARLAN  *      CLEAR     64  50  59 N6        30.24S
LAMONI         MOCLDY    64  50  60 N9        30.18R
6HR MIN TEMP:  64; 6HR MAX TEMP:  70;

RED OAK *      CLEAR     64  50  59 N7        30.20S
SHENANDOAH *   CLEAR     66  48  52 N7G13     30.21R
$$

IAZ047>049-059>061-072>074-084-220100-
   CENTRAL IOWA

CITY           SKY/WX    TMP DP  RH WIND       PRES   REMARKS
AMES           CLEAR     63  48  58 N12       30.18R
6HR MIN TEMP:  63; 6HR MAX TEMP:  69;

ANKENY *       PTCLDY    64  50  59 N5        30.18R
CHARITON *     MOCLDY    64  50  59 N9        30.17R
DES MOINES     PTCLDY    66  48  52 N7        30.17R
6HR MIN TEMP:  66; 6HR MAX TEMP:  73;

GRINNELL*      PTCLDY    61  47  60 NW7       30.17R
KNOXVILLE *    CLEAR     63  48  59 N8        30.16R
MARSHALLTOWN   CLEAR     61  48  62 N8        30.16R
6HR MIN TEMP:  61; 6HR MAX TEMP:  67;

PELLA *        PTCLDY    62  49  60 N6        30.18R
PERRY *          N/A     64  48  57 N5        30.19R
$$

IAZ004>006-015-016-023>025-035-036-220100-
   NORTH CENTRAL IOWA

CITY           SKY/WX    TMP DP  RH WIND       PRES   REMARKS
ALGONA *       CLEAR     61  48  63 N8        30.21R
CLARION *        N/A     61  48  63 NW9       30.19S
ESTHERVILLE    CLEAR     61  48  62 N9        30.21R
6HR MIN TEMP:  61; 6HR MAX TEMP:  66;

FORT DODGE *   CLEAR     63  46  55 N7        30.21R
MASON CITY     CLEAR     60  49  66 NW12      30.19R
6HR MIN TEMP:  60; 6HR MAX TEMP:  67;

FOREST CITY *  PTCLDY    59  50  72 NW9       30.19S
IOWA FALLS *     N/A     63  46  55 N9        30.19R
$$

IAZ007>011-017>019-026>030-037>042-050>054-066-220100-
   NORTHEAST IOWA

CITY           SKY/WX    TMP DP  RH WIND       PRES   REMARKS
CEDAR RAPIDS   PTCLDY    60  50  69 NW7       30.13R
6HR MIN TEMP:  59; 6HR MAX TEMP:  66;

CHARLES CITY * CLEAR     59  48  67 NW8       30.18R
CLINTON *      PTCLDY    61  48  63 N7        30.13R
DECORAH *      CLEAR     59  48  67 NW8       30.15R
DUBUQUE        MOCLDY    59  48  67 N8        30.12R
6HR MIN TEMP:  58; 6HR MAX TEMP:  66;

MONTICELLO *   CLEAR     61  48  63 NW9       30.12R
OELWEIN *      CLEAR     61  48  63 NW8G15    30.16R
WATERLOO       CLEAR     61  47  59 N12       30.15R
6HR MIN TEMP:  59; 6HR MAX TEMP:  67;

$$

IAZ064-065-067-068-078-220100-
   EAST CENTRAL IOWA

CITY           SKY/WX    TMP DP  RH WIND       PRES   REMARKS
DAVENPORT      PTCLDY    61  49  64 NW6       30.11R
6HR MIN TEMP:  61; 6HR MAX TEMP:  66;

IOWA CITY        N/A     63  49  60 N10       30.14R
6HR MIN TEMP:  61; 6HR MAX TEMP:  66;

MT. PLEASANT * PTCLDY    62  48  59 NW3       30.14S
MUSCATINE *    PTCLDY    63  50  63 NW10      30.12S
QUAD CITIES    MOCLDY    63  51  65 NW7       30.10R
6HR MIN TEMP:  63; 6HR MAX TEMP:  66;

$$

IAZ062-063-075>077-085>089-095>099-220100-
   SOUTHEAST IOWA

CITY           SKY/WX    TMP DP  RH WIND       PRES   REMARKS
BURLINGTON     CLEAR     62  51  67 NW6       30.13R
6HR MIN TEMP:  62; 6HR MAX TEMP:  69;

FAIRFIELD *    CLOUDY    63  48  59 NW8       30.15R
FORT MADISON * PTCLDY    63  52  67 NW5       30.15R
KEOKUK *       CLEAR     61  52  72 N6        30.13R
OSKALOOSA *    MOCLDY    62  50  66 NW7       30.16R
CENTERVILLE *  PTCLDY    61  50  67 N6        30.18R
OTTUMWA        PTCLDY    60  49  66 N8        30.15R
6HR MIN TEMP:  60; 6HR MAX TEMP:  70;

WASHINGTON *   CLOUDY    63  52  67 NW7       30.14R
$$

ABBREVIATIONS USED IN REMARKS
   TC - TEMPERATURES IN CELSIUS
  WCI - WIND CHILL INDEX
   HX - HEAT INDEX
  VSB - VISIBILITY
$$




USA.gov is the U.S. government's official web portal to all federal, state and local government web resources and services.